PROGRESS-MS 10 (43702 NORAD) Tracking and Keplerian Element Data

This shows tracking and keplerian element data for the satellite.

Feedback or suggestion? Click here.




ElementValue
Catalog43702
NamePROGRESS-MS 10
Epoch Orbit2948
Epoch Day145.38341464
Epoch Year2019
RAAN114.4671
Inclination51.645
Eccentricity0.0007296
Argument of Perigee335.1078
Mean Anonmoly140.6481
Mean Motion15.51158306
Decay Rate0.00011705
L11 43702U 18091A 19145.38341464 .00011705 00000-0 20417-3 0 9999
L22 43702 51.6450 114.4671 0007296 335.1078 140.6481 15.51158306 29486

Live tracking and technical data element details for PROGRESS-MS 10 (NORAD 43702). PROGRESS-MS 10 can be tracked NOW for your location showing map with azimuth and elevation plus other details from your city location.

Track the satellite on the map from your city or location and see movement details for azimuth, elevation, latitude, longitude, range, height, and movement on the map or in text.







IsCatalogInMostPopularTable: catalog: 43702, numindb: 87
Update: records affected: 1



GetName: 43702 PROGRESS-MS 10

Hit Count: updated at: Sun, 26 May 2019 19:32:55 GMT